Danville, IN

7:40 PM EDT on July 25, 2017 (GMT -0400)
Vermilion County

Weather History for KDNV - July, 2013

Change the Weather History Date:

Thursday, July 4, 2013

  Actual Average (KLAF) Record (KLAF)
Temperature  
Mean Temperature 70 °F -  
Max Temperature 85 °F 84 °F 100 °F (2012)
Min Temperature 55 °F 62 °F 49 °F (1968)
Cooling Degree Days 5    
Growing Degree Days 20 (Base 50)    
Moisture  
Dew Point 61 °F    
Average Humidity 74    
Maximum Humidity 93    
Minimum Humidity 45    
Precipitation  
Precipitation 0.00 in - - ()
Sea Level Pressure  
Sea Level Pressure 30.08 in    
Wind  
Wind Speed 2 mph (ESE)    
Max Wind Speed 9 mph    
Max Gust Speed -    
Visibility 5 miles    
Events Fog    
Averages and records for this station are not official NWS values.
T = Trace of Precipitation, MM = Missing Value Source: NWS Daily Summary

Daily Weather History Graph

Daily Weather History Graph

Search for Another Location

Airport or City:

Trip Planner

Search our weather history database for the weather conditions in past years. The results will help you decide how hot, cold, wet, or windy it might be!

Date:

Astronomy

Jul. 04, 2013 Rise Set
Actual Time 5:26 AM CDT 8:23 PM CDT
Civil Twilight 4:53 AM CDT 8:55 PM CDT
Nautical Twilight 4:12 AM CDT 9:37 PM CDT
Astronomical Twilight 3:24 AM CDT 10:25 PM CDT
Moon 2:43 AM CDT (7/4) 5:27 PM CDT (7/4)
Length of Visible Light 16h 02m
Length of Day
14h 56m
Waning Crescent, 11% of the Moon is Illuminated
Jul 4
Waning Crescent
Jul 8
New
Jul 15
First Quarter
Jul 22
Full
Jul 29
Last Quarter

Hourly Weather History & Observations

Time (CDT) Temp. Heat Index Dew Point Humidity Pressure Visibility Wind Dir Wind Speed Gust Speed Precip Events Conditions
12:15 AM 59.7 °F - 55.8 °F 87% 30.08 in 5.0 mi Calm Calm - N/A   Mist
12:35 AM 59.2 °F - 55.6 °F 88% 30.07 in 4.0 mi Calm Calm - N/A   Mist
12:55 AM 58.6 °F - 55.4 °F 89% 30.08 in 3.0 mi Calm Calm - N/A   Mist
1:15 AM 58.1 °F - 54.5 °F 88% 30.08 in 1.8 mi Calm Calm - N/A   Mist
1:35 AM 58.5 °F - 55.4 °F 90% 30.08 in 2.0 mi Calm Calm - N/A   Mist
1:55 AM 58.3 °F - 55.2 °F 90% 30.08 in 0.8 mi Calm Calm - N/A   Mist
2:15 AM 57.4 °F - 54.3 °F 90% 30.08 in 0.5 mi Calm Calm - N/A Fog Fog
2:35 AM 57.2 °F - 54.5 °F 91% 30.08 in 0.8 mi Calm Calm - N/A   Mist
2:55 AM 57.2 °F - 54.5 °F 91% 30.08 in 4.0 mi Calm Calm - N/A   Mist
3:15 AM 56.8 °F - 54.1 °F 91% 30.08 in 2.5 mi Calm Calm - N/A   Mist
3:35 AM 56.3 °F - 53.8 °F 91% 30.08 in 3.0 mi Calm Calm - N/A   Mist
3:55 AM 55.8 °F - 53.2 °F 91% 30.08 in 0.8 mi Calm Calm - N/A   Mist
4:15 AM 56.3 °F - 54.0 °F 92% 30.08 in 4.0 mi Calm Calm - N/A   Mist
4:35 AM 56.3 °F - 54.0 °F 92% 30.08 in 3.0 mi Calm Calm - N/A   Mist
4:55 AM 56.3 °F - 54.0 °F 92% 30.08 in 2.5 mi Calm Calm - N/A   Mist
5:15 AM 55.0 °F - 52.7 °F 92% 30.09 in 0.2 mi Calm Calm - N/A Fog Fog
5:35 AM 55.6 °F - 53.6 °F 93% 30.09 in 0.2 mi Calm Calm - N/A Fog Fog
5:55 AM 55.9 °F - 53.8 °F 92% 30.09 in 0.5 mi Calm Calm - N/A Fog Fog
6:15 AM 57.4 °F - 55.4 °F 93% 30.09 in 2.0 mi Calm Calm - N/A   Mist
6:35 AM 59.4 °F - 57.2 °F 93% 30.09 in 3.0 mi Calm Calm - N/A   Mist
6:55 AM 61.3 °F - 59.2 °F 93% 30.10 in 4.0 mi Calm Calm - N/A   Mist
7:15 AM 63.3 °F - 61.0 °F 92% 30.10 in 3.0 mi Calm Calm - N/A   Mist
7:35 AM 65.8 °F - 63.0 °F 90% 30.11 in 5.0 mi Calm Calm - N/A   Mist
7:55 AM 68.2 °F - 64.9 °F 89% 30.11 in 5.0 mi Calm Calm - N/A   Mist
8:15 AM 69.6 °F - 65.1 °F 86% 30.11 in 5.0 mi South 3.5 mph - N/A   Haze
8:35 AM 71.1 °F - 66.4 °F 85% 30.12 in 5.0 mi SSE 4.6 mph - N/A   Haze
8:55 AM 72.5 °F - 67.5 °F 84% 30.12 in 7.0 mi SE 4.6 mph - N/A   Clear
9:15 AM 74.3 °F - 68.9 °F 83% 30.12 in 7.0 mi SE 4.6 mph - N/A   Clear
9:35 AM 75.2 °F - 67.8 °F 78% 30.12 in 7.0 mi SE 3.5 mph - N/A   Clear
9:55 AM 75.9 °F - 68.0 °F 76% 30.12 in 7.0 mi SSE 3.5 mph - N/A   Clear
10:15 AM 76.1 °F - 67.8 °F 75% 30.12 in 7.0 mi Calm Calm - N/A   Clear
10:35 AM 77.5 °F - 67.1 °F 70% 30.12 in 5.0 mi Calm Calm - N/A   Haze
10:55 AM 78.6 °F - 68.5 °F 71% 30.12 in 7.0 mi SE 3.5 mph - N/A   Clear
11:15 AM 79.7 °F - 73.4 °F 81% 30.12 in 7.0 mi SE 5.8 mph - N/A   Clear
11:35 AM 78.8 °F - 69.3 °F 72% 30.12 in 5.0 mi Calm Calm - N/A   Haze
11:55 AM 79.2 °F - 71.2 °F 77% 30.12 in 7.0 mi SSE 3.5 mph - N/A   Clear
12:15 PM 79.7 °F - 72.7 °F 79% 30.12 in 5.0 mi ESE 4.6 mph - N/A   Haze
12:35 PM 81.0 °F 86.7 °F 74.8 °F 82% 30.11 in 7.0 mi ESE 5.8 mph - N/A   Clear
12:55 PM 82.0 °F 89.1 °F 75.7 °F 81% 30.11 in 5.0 mi SE 9.2 mph - N/A   Haze
1:15 PM 80.6 °F 84.1 °F 70.5 °F 71% 30.11 in 5.0 mi SE 6.9 mph - N/A   Haze
1:35 PM 81.5 °F 84.6 °F 68.5 °F 65% 30.10 in 5.0 mi SE 6.9 mph - N/A   Haze
1:55 PM 82.6 °F 85.7 °F 68.5 °F 62% 30.10 in 5.0 mi ESE 4.6 mph - N/A   Haze
2:15 PM 82.6 °F 84.3 °F 64.9 °F 55% 30.10 in 5.0 mi SE 9.2 mph - N/A   Haze
2:35 PM 82.8 °F 84.7 °F 65.7 °F 56% 30.09 in 5.0 mi SE 5.8 mph - N/A   Haze
2:55 PM 82.2 °F 83.7 °F 63.9 °F 54% 30.08 in 5.0 mi SE 4.6 mph - N/A   Haze
3:15 PM 81.7 °F 83.3 °F 64.4 °F 56% 30.08 in 5.0 mi SE 4.6 mph - N/A   Haze
3:35 PM 84.4 °F 87.6 °F 68.2 °F 58% 30.07 in 7.0 mi ESE 5.8 mph - N/A   Clear
3:55 PM 85.5 °F 87.4 °F 65.7 °F 51% 30.07 in 5.0 mi SE 4.6 mph - N/A   Haze
4:15 PM 85.3 °F 86.6 °F 64.0 °F 49% 30.07 in 7.0 mi SE 8.1 mph - N/A   Clear
4:35 PM 85.3 °F 86.4 °F 63.3 °F 48% 30.07 in 5.0 mi ESE 9.2 mph - N/A   Haze
4:55 PM 84.4 °F 84.6 °F 61.0 °F 45% 30.07 in 7.0 mi ESE 6.9 mph - N/A   Clear
5:15 PM 82.8 °F 82.8 °F 59.7 °F 45% 30.06 in 7.0 mi ESE 6.9 mph - N/A   Clear
5:35 PM 81.3 °F 81.7 °F 59.2 °F 47% 30.05 in 7.0 mi ESE 8.1 mph - N/A   Clear
5:55 PM 80.6 °F 81.1 °F 59.2 °F 48% 30.06 in 3.0 mi ESE 5.8 mph - N/A   Haze
6:15 PM 79.2 °F - 58.3 °F 49% 30.05 in 5.0 mi ESE 5.8 mph - N/A   Haze
6:35 PM 77.4 °F - 57.6 °F 50% 30.05 in 5.0 mi ESE 5.8 mph - N/A   Haze
6:55 PM 76.1 °F - 57.6 °F 53% 30.05 in 5.0 mi East 3.5 mph - N/A   Haze
7:15 PM 74.7 °F - 56.7 °F 53% 30.05 in 5.0 mi East 3.5 mph - N/A   Haze
7:35 PM 73.4 °F - 56.1 °F 55% 30.06 in 5.0 mi East 3.5 mph - N/A   Haze
7:55 PM 72.0 °F - 56.1 °F 57% 30.05 in 5.0 mi ESE 4.6 mph - N/A   Haze
8:15 PM 71.6 °F - 56.3 °F 58% 30.05 in 5.0 mi ESE 4.6 mph - N/A   Haze
8:35 PM 70.0 °F - 55.8 °F 61% 30.05 in 5.0 mi ESE 3.5 mph - N/A   Haze
8:55 PM 68.9 °F - 56.1 °F 64% 30.05 in 7.0 mi East 3.5 mph - N/A   Clear
9:15 PM 68.0 °F - 55.6 °F 64% 30.05 in 7.0 mi Calm Calm - N/A   Clear
9:35 PM 67.1 °F - 55.6 °F 66% 30.06 in 7.0 mi Calm Calm - N/A   Clear
9:55 PM 66.4 °F - 57.0 °F 72% 30.07 in 7.0 mi Calm Calm - N/A   Clear
10:15 PM 65.5 °F - 57.6 °F 76% 30.07 in 10.0 mi Calm Calm - N/A   Clear
10:35 PM 64.8 °F - 56.7 °F 75% 30.06 in 7.0 mi Calm Calm - N/A   Clear
10:55 PM 64.4 °F - 57.2 °F 77% 30.07 in 7.0 mi Calm Calm - N/A   Clear
11:15 PM 63.9 °F - 57.2 °F 79% 30.06 in 7.0 mi Calm Calm - N/A   Clear
11:35 PM 63.9 °F - 56.8 °F 78% 30.07 in 7.0 mi Calm Calm - N/A   Clear
11:55 PM 63.7 °F - 55.8 °F 75% 30.06 in 7.0 mi East 3.5 mph - N/A   Clear